Regional Weather Roundup
Issued by NWS

Home | Current Version | Previous Version | Graphics & Text | Print | Product List | Glossary On
Versions: 1 2 3 4 5 6 7 8 9 10 11 12 13 14 15 16 17 18 19 20 21 22 23 24 25 26 27 28 29 30 31 32 33 34 35 36 37 38 39 40 41 42 43 44 45 46 47 48 49 50
000
ASUS43 KIND 262059
RWRIN

WEATHER ROUNDUP FOR INDIANA
NATIONAL WEATHER SERVICE INDIANAPOLIS IN
400 PM EST MON JAN 26 2015

NOTE: "FAIR" INDICATES FEW OR NO CLOUDS BELOW 12,000 FEET WITH NO
SIGNIFICANT WEATHER AND/OR OBSTRUCTIONS TO VISIBILITY.

* - STATION DOES NOT REPORT WEATHER SUCH AS PRECIPITATION OR FOG.

+ - STATION NOT QUALITY CONTROLLED BY THE NATIONAL WEATHER SERVICE.
    USE DATA WITH CAUTION...ESPECIALLY DEWPOINT AND RELATIVE
    HUMIDITY OBSERVATIONS.

INZ001>003-010>013-019-020-262200-
NORTHWEST INDIANA

CITY           SKY/WX    TMP DP  RH WIND       PRES   REMARKS
GARY /AIRPORT/ CLOUDY    28  18  64 S3        29.90R
VALPARAISO     NOT AVBL

$$

LMZ046-743>745-262200-
SOUTHERN LAKE MICHIGAN

STATION/POSITION TIME  TEMP WIND        PRES
                       AIR  DIR/SP/G
                 (UTC) (F)  (DEG/KT/KT) (MB)
MICHIGAN CITY    2000   23  120/  4/  6   N/A

$$

INZ004-005-014>016-021>024-262200-
NORTH CENTRAL INDIANA

CITY           SKY/WX    TMP DP  RH WIND       PRES   REMARKS
GOSHEN         CLOUDY    23   8  52 SW3       29.90R
SOUTH BEND     CLOUDY    25  13  60 CALM      29.91R

$$

INZ006>009-017-018-025>027-262200-
NORTHEAST INDIANA

CITY           SKY/WX    TMP DP  RH WIND       PRES   REMARKS
ANGOLA *+      SUNNY     25   7  46 CALM      29.88R
FORT WAYNE     MOSUNNY   22  11  62 SW6       29.91R WCI  14

$$

INZ028-029-035-036-043>045-051>053-262200-
WEST CENTRAL INDIANA

CITY           SKY/WX    TMP DP  RH WIND       PRES   REMARKS
CRAWFORDSVL +  CLOUDY    27  16  64 W6        29.89F WCI  20
GREENCASTLE +  CLOUDY    30  18  59 W5        29.90F WCI  25
LAFAYETTE      CLOUDY    27  20  75 SW3       29.90F
TERRE HAUTE    FLURRIES  30  22  72 W8        29.92F WCI  22

$$

INZ030>032-037>040-046>048-054>057-064-065-262200-
CENTRAL INDIANA

CITY           SKY/WX    TMP DP  RH WIND       PRES   REMARKS
ANDERSON       MOSUNNY   23  16  74 NW8       29.91R WCI  14
COLUMBUS       CLOUDY    28  19  69 W6        29.92R WCI  22
INDIANAPOLIS   CLOUDY    25  19  78 NW6       29.90S WCI  18
-EAGLE CREEK   CLOUDY    26  19  74 VRB5      29.90S WCI  20
KOKOMO *+      PTSUNNY   21  12  68 NW3       29.91S
MT COMFORT *+  PTSUNNY   28  12  50 W6        29.90S WCI  22
SHELBYVILLE    CLOUDY    28  20  71 W9        29.90S WCI  19

$$

INZ033-034-041-042-049-050-058-059-262200-
EAST CENTRAL INDIANA

CITY           SKY/WX    TMP DP  RH WIND       PRES   REMARKS
MUNCIE         SUNNY     23  13  65 NW7       29.90R WCI  15

$$

INZ060-061-067>069-081>083-085>088-262200-
SOUTHWEST INDIANA

CITY           SKY/WX    TMP DP  RH WIND       PRES   REMARKS
EVANSVILLE     FLURRIES  32  22  66 W6        29.98R WCI  26
HUNTINGBURG *+ CLOUDY    30  25  80 W12       29.96S WCI  21

$$

INZ062-063-066-070>080-084-089>092-262200-
SOUTH CENTRAL AND SOUTHEAST INDIANA

CITY           SKY/WX    TMP DP  RH WIND       PRES   REMARKS
BLOOMINGTON    CLOUDY    29  23  78 W3        29.90S

$$



USA.gov is the U.S. government's official web portal to all federal, state and local government web resources and services.